West Plains, MO

6:09 AM CDT on August 20, 2017 (GMT -0500)
West Plains Municipal

Weather History for KUNO - July, 2013

Change the Weather History Date:

Friday, July 5, 2013

  Actual Average Record
Temperature  
Mean Temperature 71 °F 78 °F  
Max Temperature 86 °F 88 °F 102 °F (2012)
Min Temperature 56 °F 67 °F 50 °F (1968)
Degree Days  
Heating Degree Days 0 0  
Month to date heating degree days 0 0  
Since 1 June heating degree days 9 5  
Since 1 July heating degree days 0 0  
Cooling Degree Days 6 13  
Month to date cooling degree days 19 61  
Year to date cooling degree days 279 449  
Since 1 June cooling degree days 167 327  
Growing Degree Days 20 (Base 50)    
Moisture  
Dew Point 60 °F    
Average Humidity 69    
Maximum Humidity 100    
Minimum Humidity 37    
Precipitation  
Precipitation 0.00 in 0.13 in 2.05 in (1949)
Month to date precipitation 0.00 0.55  
Year to date precipitation 25.49 23.84  
Sea Level Pressure  
Sea Level Pressure 30.04 in    
Wind  
Wind Speed 3 mph (SE)    
Max Wind Speed 14 mph    
Max Gust Speed 18 mph    
Visibility 9 miles    
Events Thunderstorm    
T = Trace of Precipitation, MM = Missing Value Source: NWS Daily Summary

Daily Weather History Graph

Daily Weather History Graph

Search for Another Location

Airport or City:

Trip Planner

Search our weather history database for the weather conditions in past years. The results will help you decide how hot, cold, wet, or windy it might be!

Date:

Astronomy

Jul. 05, 2013 Rise Set
Actual Time 5:54 AM CDT 8:30 PM CDT
Civil Twilight 5:23 AM CDT 9:00 PM CDT
Nautical Twilight 4:45 AM CDT 9:38 PM CDT
Astronomical Twilight 4:03 AM CDT 10:20 PM CDT
Moon 3:52 AM CDT (7/5) 6:26 PM CDT (7/5)
Length of Visible Light 15h 36m
Length of Day
14h 36m
Waning Crescent, 6% of the Moon is Illuminated
Jul 5
Waning Crescent
Jul 8
New
Jul 15
First Quarter
Jul 22
Full
Jul 29
Last Quarter

Hourly Weather History & Observations

Time (CDT) Temp. Heat Index Dew Point Humidity Pressure Visibility Wind Dir Wind Speed Gust Speed Precip Events Conditions
12:53 AM 61.0 °F - 57.9 °F 90% 30.03 in 10.0 mi Calm Calm - N/A   Clear
1:53 AM 59.0 °F - 55.9 °F 90% 30.02 in 10.0 mi Calm Calm - N/A   Clear
2:53 AM 59.0 °F - 55.9 °F 90% 30.02 in 10.0 mi Calm Calm - N/A   Clear
3:53 AM 57.9 °F - 55.9 °F 93% 30.02 in 9.0 mi Calm Calm - N/A   Clear
4:53 AM 55.9 °F - 54.0 °F 93% 30.04 in 8.0 mi Calm Calm - N/A   Clear
5:53 AM 57.9 °F - 55.9 °F 93% 30.04 in 6.0 mi Calm Calm - N/A   Clear
6:53 AM 61.0 °F - 60.1 °F 97% 30.05 in 4.0 mi Calm Calm - N/A   Clear
7:53 AM 66.0 °F - 63.0 °F 90% 30.07 in 6.0 mi Calm Calm - N/A   Clear
8:07 AM 66.2 °F - 64.4 °F 94% 30.10 in 6.0 mi East 3.5 mph - N/A   Scattered Clouds
8:16 AM 66.2 °F - 64.4 °F 94% 30.11 in 6.0 mi East 3.5 mph - N/A   Mostly Cloudy
8:53 AM 69.1 °F - 66.0 °F 90% 30.09 in 7.0 mi SSE 6.9 mph - N/A   Mostly Cloudy
9:34 AM 71.6 °F - 66.2 °F 83% 30.11 in 9.0 mi Calm Calm - N/A   Scattered Clouds
9:53 AM 73.9 °F - 66.9 °F 79% 30.07 in 10.0 mi Calm Calm - N/A   Clear
10:53 AM 79.0 °F - 64.0 °F 60% 30.06 in 10.0 mi SE 4.6 mph - N/A   Clear
11:53 AM 81.0 °F 81.0 °F 57.0 °F 44% 30.06 in 10.0 mi Calm Calm - N/A   Clear
12:53 PM 80.1 °F 80.6 °F 57.9 °F 47% 30.05 in 10.0 mi SW 3.5 mph - N/A   Overcast
1:53 PM 84.9 °F 83.7 °F 55.9 °F 37% 30.04 in 10.0 mi Calm Calm - N/A   Partly Cloudy
2:53 PM 84.9 °F 83.6 °F 55.0 °F 36% 30.03 in 10.0 mi Variable 4.6 mph - N/A   Partly Cloudy
3:53 PM 82.9 °F 82.0 °F 55.0 °F 38% 30.01 in 10.0 mi SSE 4.6 mph - N/A   Mostly Cloudy
4:53 PM 84.9 °F 83.6 °F 55.0 °F 36% 30.01 in 10.0 mi East 6.9 mph - N/A   Mostly Cloudy
5:05 PM 84.2 °F 83.0 °F 55.4 °F 37% 30.04 in 10.0 mi ESE 8.1 mph - N/A Thunderstorm Scattered Clouds
5:35 PM 82.4 °F 82.0 °F 57.2 °F 42% 30.03 in 10.0 mi SSE 8.1 mph - N/A Thunderstorm Partly Cloudy
5:53 PM 81.0 °F 81.0 °F 57.0 °F 44% 30.00 in 10.0 mi South 12.7 mph - N/A Thunderstorm Clear
6:05 PM 80.6 °F 80.8 °F 57.2 °F 45% 30.03 in 10.0 mi SE 8.1 mph - N/A   Clear
6:53 PM 77.0 °F - 61.0 °F 58% 29.99 in 10.0 mi SSE 5.8 mph - N/A   Clear
7:53 PM 75.9 °F - 64.9 °F 69% 29.99 in 10.0 mi ESE 5.8 mph - N/A   Clear
8:53 PM 72.0 °F - 64.9 °F 78% 30.00 in 10.0 mi ESE 3.5 mph - N/A   Clear
9:53 PM 72.0 °F - 63.0 °F 73% 30.01 in 10.0 mi ESE 6.9 mph - N/A   Clear
10:53 PM 69.1 °F - 64.0 °F 84% 30.02 in 10.0 mi East 3.5 mph - N/A   Clear
11:53 PM 69.1 °F - 64.0 °F 84% 30.03 in 10.0 mi SE 4.6 mph - N/A   Clear